Location: K?rk?npeta
(17.2011°N, 80.5621°E)
Time: 07:43:34
(UTC+00:00)

Daily predictions for brighter satellites

Satellite Brightness Start Highest point End
(mag) Time Altitude Azimuth Time Altitude Azimuth Time Altitude Azimuth
Centaur D-1AR AC-39 2.7 12:16:24 10° SW 12:19:42 40° SSE 12:25:32 10° E
COSMOS 2455 3.0 12:17:23 10° SSW 12:23:23 87° WNW 12:29:25 10° NNE
CZ-4C R/B 3.4 12:15:30 10° NNW 12:23:44 60° ENE 12:32:48 10° SE
Meteor 1-26 Rocket 4.1 12:20:10 10° S 12:25:38 81° E 12:31:01 10° N
Cosmos 2278 4.2 12:22:37 10° S 12:27:52 39° ESE 12:33:07 10° NE
Cosmos 1867 3.7 12:23:30 10° N 12:28:47 51° ENE 12:34:00 10° SE
SPOT 1/Viking Rocket 4.3 12:29:48 10° SE 12:34:15 30° ENE 12:38:43 10° NNE
Cosmos 2084 Rocket 3.3 12:34:15 10° NNW 12:38:26 84° ENE 12:42:37 10° SSE
AQUARIUS 4.1 12:34:38 10° SSE 12:38:59 63° ENE 12:43:19 10° N
Helios 1A Rocket 2.9 12:36:00 10° NNE 12:39:11 39° E 12:42:22 10° S
NOSS 2-1 (E) 4.3 12:33:37 10° S 12:39:18 46° ESE 12:43:24 10° NE
Cosmos 2263 Rocket 2.8 12:34:57 10° N 12:39:59 32° ENE 12:45:00 10° SE
YAOGAN 1 3.9 12:37:17 10° ESE 12:40:14 19° ENE 12:43:11 10° NNE
CZ-2D R/B 2.8 12:38:27 10° S 12:41:34 80° W 12:44:40 10° NNW
Meteor 2-10 4.5 12:36:26 10° N 12:41:47 47° E 12:47:13 10° SSE
SAR-Lupe-4 3.6 12:38:47 10° S 12:42:19 86° WSW 12:45:51 10° NNW
SJ-6F 4.3 12:42:35 10° SSE 12:46:29 64° ENE 12:50:25 10° N
USA 81 4.0 12:41:45 10° N 12:46:57 63° E 12:52:09 10° SSE
Cosmos 2360 Rocket 3.0 12:43:27 10° SSE 12:48:23 31° ESE 12:53:00 11° NE
Meteor 1-5 Rocket 4.4 12:43:16 10° N 12:48:46 80° W 12:54:28 10° S
MOS 1 Rocket 3.4 12:45:24 10° SSE 12:50:05 90° S 12:55:06 10° N
NOSS 3-1 (C) 2.6 12:50:10 10° SSW 12:54:29 62° ESE 12:58:33 12° NE
NOSS 2-1 (C) 3.7 12:49:52 10° SSW 12:55:38 87° ESE 12:59:35 11° NNE
Milstar 3 Cent rocket 4.4 12:46:13 10° WNW 12:55:49 63° NNE 13:17:33 10° E
PSLV R/B 4.5 12:53:42 10° SE 12:56:52 23° ENE 13:00:03 10° NNE
Cosmos 1538 Rocket 4.1 12:53:30 10° N 12:58:45 59° ENE 13:03:59 10° SSE
Cosmos 2227 Rocket 2.5 12:55:54 10° NNW 13:01:31 71° WSW 13:07:07 10° S
Cosmos 2219 Rocket 3.4 12:58:39 10° SSE 13:02:57 23° ESE 13:04:45 19° ENE
Cosmos 1536 4.4 13:05:40 16° ESE 13:05:40 16° ESE 13:07:01 10° SE
Cosmos 2333 Rocket 2.2 13:00:30 10° SSW 13:06:12 82° ESE 13:11:57 10° NNE
IRS-P3 4.3 13:02:56 10° S 13:08:14 75° WSW 13:13:32 10° NNW
Spot 4 Rocket 4.2 13:03:50 10° SSE 13:08:40 46° ENE 13:13:32 10° N
Cosmos 2322 Rocket 2.1 13:09:03 10° S 13:14:40 72° ESE 13:19:29 15° NNE
IUS-18 SRM-1 4.2 13:12:54 10° SSW 13:15:43 25° SE 13:18:04 20° E
H-II Stage 2 2.1 13:14:20 10° WNW 13:19:56 38° N 13:20:22 36° NNE
Delta 202 3.7 13:15:03 10° W 13:20:22 84° N 13:23:47 28° E
COSMO-SKYMED 1 4.4 13:19:01 10° NNW 13:22:34 29° WNW 13:26:08 10° SW
Cosmos 1812 Rocket 3.7 13:20:26 10° S 13:24:44 70° W 13:29:00 10° N
Cosmos 2221 2.9 13:22:52 10° SSW 13:27:01 60° W 13:31:08 10° N
Cosmos 1437 Rocket 2.3 13:25:26 10° S 13:28:59 85° E 13:29:50 49° NNE
H-2A R/B 3.3 13:27:55 10° NW 13:31:08 28° NNE 13:31:53 27° NE
Cosmos 1842 3.7 13:31:31 10° S 13:33:40 36° SSE 13:33:40 36° SSE
Meteor 1-14 Rocket 4.4 13:30:05 10° N 13:35:26 45° E 13:40:43 10° SSE
IRAS Rocket 4.1 13:31:35 10° SSE 13:37:02 68° ENE 13:42:27 10° N
Cosmos 2333 4.1 13:34:17 10° SSW 13:40:00 84° ESE 13:42:48 32° NNE
Cosmos 923 Rocket 3.9 13:34:57 10° N 13:40:02 58° ENE 13:45:07 10° SSE
Cosmos 2285 Rocket 4.2 13:34:21 10° SSW 13:40:35 68° WNW 13:46:13 13° N
BREEZE-M DEB (TANK) 4.4 13:40:35 10° WNW 13:45:00 34° SW 13:47:15 14° S
SL-16 R/B 4.1 13:41:01 10° SW 13:45:38 26° WNW 13:50:16 10° NNW
Meteor 1-19 Rocket 4.4 13:40:45 10° SSW 13:46:04 66° W 13:50:43 14° N
Atlas Centaur 2 3.1 13:43:38 10° WNW 13:45:36 18° NNW 13:45:36 18° NNW
Meteor 1-10 Rocket 4.4 13:42:00 10° SSW 13:47:33 71° W 13:52:13 15° N
Meteor 2-11 Rocket 4.5 13:42:24 10° N 13:48:32 80° W 13:54:38 10° S
Hubble Space Telescope 3.0 13:46:02 10° NW 13:46:54 14° NNW 13:46:54 14° NNW
Cosmos 192 4.2 13:45:23 10° SSW 13:50:18 86° E 13:50:57 67° NNE
Cosmos 2082 3.5 13:45:01 10° NNW 13:50:44 81° ENE 13:56:26 10° SSE
Palapa 6 Rocket 3.7 13:49:54 10° W 13:52:53 38° NW 13:52:53 38° NW
Cosmos 2315 Rocket 4.2 13:49:34 10° S 13:55:52 74° W 14:01:18 15° N
NOAA 6 4.1 13:52:41 10° S 13:57:47 73° WSW 14:02:51 10° NNW
ATLAS 5 CENTAUR R/B 2.4 13:55:38 10° WSW 13:56:34 25° WSW 13:56:34 25° WSW
Ariane H10+ 4.3 13:57:18 10° SW 14:01:01 15° SSW 14:02:14 13° S
NOSS 3-1 (A) 3.0 14:01:13 10° SSW 14:04:52 58° WSW 14:04:52 58° WSW
ATLAS 2A CENTAUR R/B 2.7 14:01:42 10° WNW 14:10:38 67° WNW 14:10:38 67° WNW
Palapa B4 Rocket 4.1 14:12:34 10° W 14:17:34 49° WNW 14:17:34 49° WNW
Intelsat 5-1 Rocket 4.4 14:21:23 10° WSW 14:22:15 17° WSW 14:22:15 17° WSW
Cosmos 1709 Rocket 4.4 14:32:49 57° SW 14:32:49 57° SW 14:37:56 10° S
Cosmos 2360 Rocket 4.4 14:28:07 10° WSW 14:32:12 20° WNW 14:34:48 15° NW
Cosmos 2219 Rocket 3.8 14:41:48 10° SW 14:46:31 28° WNW 14:46:31 28° WNW
Centaur D-1A AC-31 3.8 15:09:32 10° WNW 15:34:51 54° W 15:34:51 54° W
CZ-3 R/B 4.2 20:17:21 10° WNW 21:15:29 66° NNE 21:27:22 10° E
Aureole 1 Rocket 4.4 22:44:31 50° N 22:46:37 74° ENE 22:53:27 10° SSE
SL-16 R/B 2.5 22:43:00 10° S 22:48:48 76° SSW 22:48:48 76° SSW
Cosmos 2180 Rocket 4.5 22:52:26 58° N 22:53:48 85° E 23:00:12 10° S
Meteor 2-3 Rocket 4.3 22:50:01 10° S 22:53:56 45° SSW 22:53:56 45° SSW
Cosmos 1428 Rocket 4.4 22:57:36 10° SSW 23:03:09 61° WSW 23:03:09 61° WSW
Cosmos 1980 Rocket 3.1 23:08:05 34° SW 23:08:05 34° SW 23:11:37 10° S
SJ-11-01 4.4 23:04:36 34° NNE 23:06:36 73° ESE 23:11:12 10° S
Aurora 2 Rocket 3.4 23:06:16 54° W 23:08:05 83° NNW 23:13:56 10° ENE
ATLAS 2AS CENTAUR R/B 2.6 23:02:59 10° SSW 23:10:12 73° WNW 23:17:13 10° NNE
Cosmos 1092 Rocket 4.1 23:05:15 10° S 23:11:32 77° E 23:17:46 10° N
Cosmos 44 4.2 23:07:34 10° S 23:11:39 43° ESE 23:15:55 10° NE
Cosmos 2142 Rocket 4.5 23:14:42 53° WNW 23:15:05 54° W 23:21:01 10° SSW
EPKM 4.1 23:16:51 19° NNE 23:16:51 19° NNE 23:17:51 10° NE
BREEZE-M DEB (TANK) 2.7 23:16:23 58° NNE 23:16:23 58° NNE 23:21:48 10° NE
Delta 2 Rocket 3.8 23:22:42 40° ENE 23:22:42 40° ENE 23:25:02 10° ESE
COSMOS 2455 2.7 23:20:36 39° NNW 23:22:57 78° WSW 23:28:55 10° SSE
Cosmos 2369 3.7 23:25:36 44° NW 23:27:01 57° WSW 23:32:31 10° S
USA 59 Rocket 0.7 23:25:09 34° NNW 23:27:32 84° ENE 23:34:34 10° SSE
UNK 3.6 23:26:46 10° S 23:31:19 65° WSW 23:32:56 38° NW
NOSS 2-1 (D) 4.2 23:29:00 30° NNW 23:31:37 83° ENE 23:38:32 10° SSE
deb Centaur AC-2 3.9 23:31:46 54° W 23:32:39 74° SSW 23:36:56 10° ESE
USA 276 3.4 23:33:29 15° SSW 23:35:37 37° SE 23:38:17 10° ENE
Tiangong -1.7 23:35:30 50° NNE 23:35:45 52° NE 23:38:53 10° ESE
Centaur D-1AR AC-48 3.5 14:02:20 10° SW 23:36:35 68° N 23:41:36 10° ENE
Cosmos 2360 Rocket 4.4 23:34:24 10° NNE 23:38:41 22° ENE 23:42:57 10° ESE
Centaur AC-119 3.7 23:42:04 21° N 23:42:47 22° N 23:46:00 10° ENE
Stardust Del rocket 3.3 23:46:07 33° WNW 23:47:44 56° NNW 23:50:45 10° ENE
Cosmos 1898 Rocket 4.1 23:46:54 28° WNW 23:48:39 35° W 23:53:27 10° SSW
NOSS 2-1 (E) 4.1 23:47:45 20° NNW 23:51:19 81° WSW 23:58:15 10° SSE
NOAA 12 4.1 23:48:48 10° N 23:53:52 53° WNW 23:58:56 10° SSW
Cosmos 405 Rocket 2.6 23:51:18 10° SSW 23:54:22 40° W 23:56:01 22° NNW
